Location: Larkspur
(54.4391°N, 113.7691°W)
Time: 00:52:25
(UTC+00:00)

YUBILEINY - Pass Details

Date: 05 December 2023
Orbit: 1479 x 1508 km, 82.5° (Epoch: 03 March)

Event Time Altitude Azimuth Distance (km) Brightness Sun altitude
Rises 05:57:34 0° 346° (NNW) 4,635 ? -53.9°
Reaches altitude 10° 06:01:08 10° 334° (NNW) 3,646 ? -54.2°
Enters shadow 06:05:18 21° 307° (NW) 2,848 ? -54.5°
